Location: Guferjoch
(46.7462°N, 8.4506°E)
Time: 23:52:15
(UTC+00:00)

Cosmos 1725 Rocket - Pass Details

Date: 14 July 2020
Orbit: 963 x 990 km, 82.9° (Epoch: 14 August)

Event Time Altitude Azimuth Distance (km) Brightness Sun altitude
Exits shadow 01:21:06 23° 180° (S) 1,917 5.0 -17.3°
Maximum altitude 01:25:07 80° 96° (E) 992 4.0 -17.0°
Drops below altitude 10° 01:31:24 10° 11° (N) 2,737 7.5 -16.5°
Sets 01:33:55 0° 10° (N) 3,693 8.4 -16.3°
